Regional Weather Roundup
Issued by NWS

Home | Current Version | Previous Version | Graphics & Text | Print | Product List | Glossary On
Versions: 1 2 3 4 5 6 7 8 9 10 11 12 13 14 15 16 17 18 19 20 21 22 23 24 25 26 27 28 29 30 31 32 33 34 35 36 37 38 39 40 41 42 43 44 45 46 47 48 49 50
000
ASUS43 KFSD 211110
RWRSD

WEATHER ROUNDUP FOR SOUTH DAKOTA
NATIONAL WEATHER SERVICE SIOUX FALLS SD
500 AM CST SUN JAN 21 2018

NOTE: "FAIR" INDICATES FEW OR NO CLOUDS BELOW 12,000 FEET WITH NO
SIGNIFICANT WEATHER AND/OR OBSTRUCTIONS TO VISIBILITY.


SDZ001>005-009-010-012>017-211200-
NORTHWEST AND NORTH CENTRAL SOUTH DAKOTA

CITY           SKY/WX    TMP DP  RH WIND       PRES   REMARKS
BUFFALO          N/A     26  19  74 CALM      29.90S
FAITH            N/A     29  24  82 NW8       29.97F WCI  21
MOBRIDGE       CLOUDY    30  25  81 NW13      29.95S WCI  20
$$

SDZ012>016-024>037-041>051-057-063-072>074-211200-
SOUTHWEST AND SOUTH CENTRAL SOUTH DAKOTA

CITY           SKY/WX    TMP DP  RH WIND       PRES   REMARKS
RAPID CTY ARPT FLURRIES  28  27  96 W3        29.95F
PIERRE         CLOUDY    33  33 100 NW12      29.97S WCI  24
CUSTER         LGT SNOW  22  17  81 N7        29.86F WCI  13
ELLSWORTH AFB  CLOUDY    29  29  99 SW5       29.94F WCI  24
PHILIP         CLOUDY    32  32 100 W5        29.98F WCI  27
PINE RIDGE     LGT SNOW  30  30 100 N5        29.93F FOG     WCI  25
SPEARFISH        N/A     27  23  86 CALM      29.95F
WINNER         CLOUDY    35  32  88 N13       29.94S WCI  26
$$

SDZ004>011-016>023-039-040-211200-
NORTHEAST SOUTH DAKOTA

CITY           SKY/WX    TMP DP  RH WIND       PRES   REMARKS
ABERDEEN       CLOUDY    31  26  82 N6        29.98S WCI  25
WATERTOWN      CLOUDY    32  29  88 NW3       29.94F
BROOKINGS      CLOUDY    36  29  75 N8        29.93S
SISSETON         N/A     33  27  78 NW9       29.96F WCI  25
$$

SDZ017-020-022-023-036>040-048>070-211200-
SOUTHEAST SOUTH DAKOTA

CITY           SKY/WX    TMP DP  RH WIND       PRES   REMARKS
SIOUX FALLS    CLOUDY    27  26  96 CALM      29.91S
HURON          CLOUDY    36  30  79 N8        29.95S
CHAMBERLAIN    CLOUDY    37  35  94 N9        29.94S
MITCHELL       CLOUDY    36  31  82 N10       29.94F
YANKTON        CLOUDY    30  26  85 N5        29.90F WCI  25
$$

ABBREVIATIONS USED IN REMARKS
   TC - TEMPERATURE IN CELSIUS
  WCI - WIND CHILL INDEX
   HX - HEAT INDEX
  VSB - VISIBILITY





USA.gov is the U.S. government's official web portal to all federal, state and local government web resources and services.